This is the latest recevied weather packets stored in our database for station/object KD9WYV. If no packets are shown the sender has not sent any weather packets the latest 1 day(s).
| Time | Temp. | Humidity | Pressure | Rain* | Wind** | Luminosity | Snow |
|---|---|---|---|---|---|---|---|
| 1778039660 | 7.78° C | 96% | 1010.1 hPa | 0 mm | 0 m/s | 0 W/m² | - |
| 1778039357 | 7.78° C | 96% | 1010.1 hPa | 1.27 mm | 1.79 m/s, 46° | 0 W/m² | - |
| 1778039054 | 7.78° C | 96% | 1010.2 hPa | 4.83 mm | 0.45 m/s, 349° | 0 W/m² | - |
| 1778038751 | 7.78° C | 96% | 1010.6 hPa | 6.6 mm | 0 m/s | 0 W/m² | - |
| 1778038448 | 7.78° C | 96% | 1010.8 hPa | 7.87 mm | 0.45 m/s, 39° | 0 W/m² | - |
| 1778038145 | 7.78° C | 97% | 1010.8 hPa | 6.1 mm | 0.45 m/s, 33° | 0 W/m² | - |
| 1778037842 | 7.78° C | 97% | 1011 hPa | 3.05 mm | 0.45 m/s, 354° | 0 W/m² | - |
| 1778037539 | 7.78° C | 97% | 1010.9 hPa | 1.78 mm | 0.89 m/s, 12° | 0 W/m² | - |
| 1778037236 | 8.33° C | 97% | 1010.2 hPa | 0 mm | 0.89 m/s, 339° | 0 W/m² | - |
| 1778036934 | 8.33° C | 97% | 1010 hPa | 0 mm | 1.34 m/s, 353° | 0 W/m² | - |
| 1778036632 | 8.33° C | 97% | 1010 hPa | 0 mm | 0.89 m/s, 347° | 0 W/m² | - |
| 1778036328 | 8.33° C | 97% | 1009.6 hPa | 0 mm | 0.45 m/s, 17° | 0 W/m² | - |
| 1778036024 | 8.33° C | 97% | 1009 hPa | 0 mm | 0.89 m/s, 8° | 0 W/m² | - |
| 1778035722 | 8.33° C | 97% | 1009.6 hPa | 0 mm | 0.89 m/s, 89° | 0 W/m² | - |
| 1778035418 | 8.33° C | 97% | 1009.7 hPa | 3.05 mm | 0.45 m/s, 349° | 0 W/m² | - |
| 1778035115 | 8.33° C | 97% | 1009.6 hPa | 7.11 mm | 0.89 m/s, 69° | 0 W/m² | - |
| 1778034811 | 8.33° C | 97% | 1009.8 hPa | 7.87 mm | 1.34 m/s, 81° | 0 W/m² | - |
| 1778034508 | 8.33° C | 97% | 1009.5 hPa | 4.83 mm | 0.45 m/s, 5° | 0 W/m² | - |
| 1778034206 | 8.33° C | 97% | 1010.3 hPa | 1.27 mm | 1.34 m/s, 25° | 0 W/m² | - |
| 1778033904 | 8.33° C | 97% | 1010.5 hPa | 0 mm | 1.34 m/s, 1° | 0 W/m² | - |
| 1778033600 | 8.33° C | 97% | 1010.1 hPa | 0 mm | 0.89 m/s, 337° | 0 W/m² | - |
| 1778033297 | 8.33° C | 97% | 1009.5 hPa | 0 mm | 1.79 m/s, 5° | 0 W/m² | - |
| 1778032995 | 8.33° C | 97% | 1009.2 hPa | 1.78 mm | 0.89 m/s, 334° | 0 W/m² | - |
| 1778032693 | 8.33° C | 97% | 1009.2 hPa | 1.78 mm | 0.45 m/s, 342° | 0 W/m² | - |
| 1778032390 | 8.33° C | 97% | 1008.9 hPa | 1.27 mm | 0.89 m/s, 35° | 0 W/m² | - |
* Rain latest hour (hover to see other rain measurements)
** Current wind speed in m/s (hover to see current wind gust speed)